This is the latest recevied weather packets stored in our database for station/object KB0Y. If no packets are shown the sender has not sent any weather packets the latest 10 day(s).
| Time | Temp. | Humidity | Pressure | Rain* | Wind** | Luminosity | Snow |
|---|---|---|---|---|---|---|---|
| 1777230638 | 30° C | 56% | 1014.5 hPa | 0 mm | - | 441 W/m² | - |
| 1777230334 | 29.44° C | 59% | 1014.5 hPa | 0 mm | - | 508 W/m² | - |
| 1777230031 | 29.44° C | 58% | 1014.5 hPa | 0 mm | - | 541 W/m² | - |
| 1777229727 | 29.44° C | 59% | 1014.5 hPa | 0 mm | - | 501 W/m² | - |
| 1777229424 | 29.44° C | 58% | 1014.9 hPa | 0 mm | - | 421 W/m² | - |
| 1777229121 | 29.44° C | 58% | 1014.9 hPa | 0 mm | - | 243 W/m² | - |
| 1777228819 | 28.89° C | 58% | 1014.9 hPa | 0 mm | - | 363 W/m² | - |
| 1777228514 | 28.89° C | 57% | 1014.9 hPa | 0 mm | - | 464 W/m² | - |
| 1777228210 | 28.89° C | 58% | 1014.9 hPa | 0 mm | - | 516 W/m² | - |
| 1777227909 | 28.89° C | 59% | 1015.2 hPa | 0 mm | - | 399 W/m² | - |
| 1777227605 | 28.89° C | 59% | 1014.9 hPa | 0 mm | - | 248 W/m² | - |
| 1777227301 | 28.89° C | 61% | 1014.9 hPa | 0 mm | - | 180 W/m² | - |
| 1777226998 | 28.89° C | 62% | 1014.9 hPa | 0 mm | - | 268 W/m² | - |
| 1777226696 | 28.89° C | 61% | 1015.2 hPa | 0 mm | - | 418 W/m² | - |
| 1777226392 | 28.89° C | 63% | 1014.9 hPa | 0 mm | - | 398 W/m² | - |
| 1777226088 | 28.89° C | 63% | 1015.2 hPa | 0 mm | - | 412 W/m² | - |
| 1777225784 | 28.89° C | 64% | 1014.9 hPa | 0 mm | - | 191 W/m² | - |
| 1777225481 | 28.89° C | 61% | 1014.9 hPa | 0 mm | - | 479 W/m² | - |
| 1777225179 | 28.89° C | 61% | 1014.9 hPa | 0 mm | - | 467 W/m² | - |
| 1777224875 | 28.33° C | 63% | 1014.9 hPa | 0 mm | - | 520 W/m² | - |
* Rain latest hour (hover to see other rain measurements)
** Current wind speed in m/s (hover to see current wind gust speed)